TimePDT,TemperatureF,Dew PointF,Humidity,Sea Level PressureIn,VisibilityMPH,Wind Direction,Wind SpeedMPH,Gust SpeedMPH,PrecipitationIn,Events,Conditions,WindDirDegrees,DateUTC
12:15 AM,48.2,48.2,100,30.44,4.0,North,4.6,-,N/A,,Overcast,360,2013-03-11 07:15:00
12:35 AM,48.2,48.2,100,30.44,4.0,North,3.5,-,N/A,,Overcast,10,2013-03-11 07:35:00
12:55 AM,48.2,48.2,100,30.44,5.0,SE,4.6,-,N/A,,Overcast,130,2013-03-11 07:55:00
1:15 AM,46.4,46.4,100,30.44,4.0,Calm,Calm,-,N/A,,Overcast,0,2013-03-11 08:15:00
1:35 AM,46.4,46.4,100,30.44,4.0,Calm,Calm,-,N/A,,Overcast,0,2013-03-11 08:35:00
1:55 AM,46.4,46.4,100,30.45,2.0,Calm,Calm,-,N/A,,Overcast,0,2013-03-11 08:55:00
2:15 AM,46.4,46.4,100,30.45,1.0,Calm,Calm,-,N/A,,Overcast,0,2013-03-11 09:15:00
2:35 AM,46.4,46.4,100,30.45,0.8,Calm,Calm,-,N/A,,Overcast,0,2013-03-11 09:35:00
2:55 AM,46.4,46.4,100,30.45,0.5,Calm,Calm,-,N/A,,Overcast,0,2013-03-11 09:55:00
3:15 AM,46.4,46.4,100,30.44,2.0,ESE,4.6,-,N/A,,Overcast,120,2013-03-11 10:15:00
3:35 AM,46.4,44.6,93,30.43,6.0,SE,5.8,-,N/A,,Overcast,140,2013-03-11 10:35:00
3:55 AM,46.4,44.6,93,30.42,1.5,SSE,4.6,-,N/A,,Overcast,150,2013-03-11 10:55:00
4:15 AM,46.4,44.6,93,30.42,1.2,Calm,Calm,-,N/A,,Overcast,0,2013-03-11 11:15:00
4:35 AM,46.4,46.4,100,30.41,0.5,Calm,Calm,-,N/A,,Overcast,0,2013-03-11 11:35:00
4:55 AM,46.4,46.4,100,30.41,0.5,Calm,Calm,-,N/A,,Overcast,0,2013-03-11 11:55:00
5:15 AM,46.4,46.4,100,30.42,2.0,Calm,Calm,-,N/A,,Overcast,0,2013-03-11 12:15:00
5:35 AM,46.4,46.4,100,30.42,9.0,Calm,Calm,-,N/A,,Overcast,0,2013-03-11 12:35:00
5:55 AM,46.4,46.4,100,30.41,4.0,Calm,Calm,-,N/A,,Overcast,0,2013-03-11 12:55:00
6:15 AM,46.4,46.4,100,30.42,3.0,Calm,Calm,-,N/A,,Overcast,0,2013-03-11 13:15:00
6:35 AM,48.2,48.2,100,30.41,2.5,Calm,Calm,-,N/A,,Overcast,0,2013-03-11 13:35:00
6:55 AM,46.4,46.4,100,30.41,4.0,SSE,3.5,-,N/A,,Overcast,150,2013-03-11 13:55:00
7:15 AM,46.4,46.4,100,30.40,4.0,Calm,Calm,-,N/A,,Overcast,0,2013-03-11 14:15:00
7:35 AM,46.4,46.4,100,30.40,3.0,Calm,Calm,-,N/A,,Overcast,0,2013-03-11 14:35:00
7:55 AM,46.4,46.4,100,30.40,4.0,Calm,Calm,-,N/A,,Overcast,0,2013-03-11 14:55:00
8:15 AM,46.4,46.4,100,30.40,5.0,South,3.5,-,N/A,,Overcast,180,2013-03-11 15:15:00
8:35 AM,48.2,46.4,93,30.40,9.0,Calm,Calm,-,N/A,,Overcast,0,2013-03-11 15:35:00
8:55 AM,48.2,48.2,100,30.40,3.0,Calm,Calm,-,N/A,,Overcast,0,2013-03-11 15:55:00
9:15 AM,48.2,46.4,93,30.40,3.0,Calm,Calm,-,N/A,,Overcast,0,2013-03-11 16:15:00
9:35 AM,48.2,46.4,93,30.41,3.0,NW,3.5,-,N/A,,Overcast,320,2013-03-11 16:35:00
9:55 AM,48.2,46.4,93,30.41,3.0,NNW,3.5,-,N/A,,Overcast,330,2013-03-11 16:55:00
10:15 AM,48.2,48.2,100,30.41,4.0,NNW,5.8,-,N/A,,Overcast,330,2013-03-11 17:15:00
10:35 AM,48.2,46.4,93,30.41,4.0,North,3.5,-,N/A,,Overcast,360,2013-03-11 17:35:00
10:55 AM,48.2,48.2,100,30.41,4.0,North,3.5,-,N/A,,Overcast,350,2013-03-11 17:55:00
11:15 AM,50.0,50.0,100,30.41,4.0,Calm,Calm,-,N/A,,Overcast,0,2013-03-11 18:15:00
11:35 AM,51.8,50.0,94,30.39,4.0,NNE,3.5,-,N/A,,Overcast,20,2013-03-11 18:35:00
11:55 AM,51.8,50.0,94,30.39,4.0,Calm,Calm,-,N/A,,Overcast,0,2013-03-11 18:55:00
12:15 PM,51.8,51.8,100,30.38,10.0,West,4.6,-,N/A,,Scattered Clouds,280,2013-03-11 19:15:00
12:35 PM,53.6,51.8,94,30.37,10.0,West,6.9,-,N/A,,Clear,280,2013-03-11 19:35:00
12:55 PM,53.6,51.8,94,30.37,10.0,West,6.9,-,N/A,,Clear,270,2013-03-11 19:55:00
1:15 PM,53.6,51.8,94,30.38,10.0,WNW,9.2,-,N/A,,Clear,300,2013-03-11 20:15:00
1:35 PM,53.6,51.8,94,30.37,10.0,West,5.8,-,N/A,,Partly Cloudy,280,2013-03-11 20:35:00
1:55 PM,53.6,50.0,88,30.36,10.0,NNW,9.2,-,N/A,,Clear,340,2013-03-11 20:55:00
2:15 PM,53.6,51.8,94,30.35,10.0,NNW,6.9,-,N/A,,Clear,330,2013-03-11 21:15:00
2:35 PM,55.4,51.8,88,30.35,10.0,NNW,11.5,-,N/A,,Clear,340,2013-03-11 21:35:00
2:55 PM,53.6,50.0,88,30.35,10.0,NNW,8.1,-,N/A,,Clear,330,2013-03-11 21:55:00
3:15 PM,53.6,50.0,88,30.34,10.0,NW,9.2,-,N/A,,Clear,320,2013-03-11 22:15:00
3:35 PM,53.6,50.0,88,30.33,10.0,NNW,9.2,-,N/A,,Clear,340,2013-03-11 22:35:00
3:55 PM,55.4,50.0,82,30.33,10.0,NNW,10.4,-,N/A,,Clear,330,2013-03-11 22:55:00
4:15 PM,53.6,50.0,88,30.33,10.0,NNW,10.4,-,N/A,,Clear,330,2013-03-11 23:15:00
4:35 PM,53.6,50.0,88,30.33,10.0,NW,9.2,-,N/A,,Clear,320,2013-03-11 23:35:00
4:55 PM,53.6,50.0,88,30.32,10.0,NNW,9.2,-,N/A,,Clear,330,2013-03-11 23:55:00
5:15 PM,53.6,50.0,88,30.31,10.0,NNW,9.2,-,N/A,,Clear,330,2013-03-12 00:15:00
5:35 PM,53.6,50.0,88,30.30,10.0,NNW,6.9,-,N/A,,Clear,330,2013-03-12 00:35:00
5:55 PM,53.6,48.2,82,30.29,10.0,North,9.2,-,N/A,,Clear,350,2013-03-12 00:55:00
6:15 PM,53.6,48.2,82,30.29,10.0,NNW,9.2,-,N/A,,Clear,340,2013-03-12 01:15:00
6:35 PM,51.8,48.2,88,30.29,10.0,NNW,10.4,-,N/A,,Clear,340,2013-03-12 01:35:00
6:55 PM,51.8,48.2,88,30.28,10.0,North,11.5,-,N/A,,Clear,350,2013-03-12 01:55:00
7:15 PM,50.0,48.2,94,30.29,10.0,North,11.5,-,N/A,,Clear,350,2013-03-12 02:15:00
7:35 PM,50.0,48.2,94,30.28,10.0,North,12.7,-,N/A,,Clear,360,2013-03-12 02:35:00
7:55 PM,51.8,48.2,88,30.28,10.0,North,10.4,-,N/A,,Clear,360,2013-03-12 02:55:00
8:15 PM,50.0,50.0,100,30.29,10.0,North,6.9,-,N/A,,Mostly Cloudy,10,2013-03-12 03:15:00
8:35 PM,50.0,48.2,94,30.29,10.0,North,4.6,-,N/A,,Mostly Cloudy,350,2013-03-12 03:35:00
8:55 PM,50.0,48.2,94,30.29,10.0,Calm,Calm,-,N/A,,Partly Cloudy,0,2013-03-12 03:55:00
9:15 PM,50.0,48.2,94,30.29,10.0,WNW,3.5,-,N/A,,Clear,300,2013-03-12 04:15:00
9:35 PM,48.2,48.2,100,30.29,8.0,WNW,4.6,-,N/A,,Clear,300,2013-03-12 04:35:00
9:55 PM,48.2,46.4,93,30.29,5.0,NW,4.6,-,N/A,,Clear,320,2013-03-12 04:55:00
10:15 PM,48.2,46.4,93,30.29,5.0,NW,4.6,-,N/A,,Scattered Clouds,320,2013-03-12 05:15:00
10:35 PM,48.2,48.2,100,30.29,1.2,NNW,4.6,-,N/A,,Overcast,340,2013-03-12 05:35:00
10:55 PM,48.2,48.2,100,30.29,0.5,North,3.5,-,N/A,,Overcast,350,2013-03-12 05:55:00
11:15 PM,48.2,48.2,100,30.29,0.5,North,3.5,-,N/A,,Overcast,350,2013-03-12 06:15:00
11:35 PM,48.2,48.2,100,30.28,0.2,Calm,Calm,-,N/A,,Overcast,0,2013-03-12 06:35:00
11:55 PM,46.4,46.4,100,30.27,0.2,Calm,Calm,-,N/A,,Overcast,0,2013-03-12 06:55:00